GFSFLT2_sfc_30mbdewp_126.txt.gz
Dewpoint
71 70 69 69 69 69 69 70 71 71 71 71 71 71 71 70 70 70 70 70 70 69 68 68 68 68 68 68 67 67 67 64
68 70 69 69 69 69 68 69 70 71 71 71 70 70 70 70 70 70 70 70 69 69 68 68 68 68 67 67 66 66 66 64
68 69 69 69 68 69 68 68 69 70 70 70 69 69 69 69 69 69 70 69 69 68 68 68 68 67 67 66 66 66 64 65
65 67 68 69 68 69 68 68 68 69 70 70 70 69 69 68 67 68 69 69 68 68 67 67 67 67 66 66 66 65 64 65
35 67 66 66 67 69 69 68 67 67 68 69 69 68 67 66 67 68 68 68 67 67 67 67 66 64 65 65 64 63 64 64
28 48 68 68 67 67 68 67 67 67 67 68 67 67 67 66 67 67 67 67 66 65 66 65 64 64 64 63 63 62 63 63
28 37 67 68 67 65 67 65 65 65 67 68 68 67 67 66 66 66 66 66 65 64 64 64 63 63 63 62 62 63 62 64
25 30 42 67 66 66 67 65 65 65 65 67 68 67 67 66 66 65 65 65 65 64 63 63 63 62 61 62 60 62 62 64
25 28 34 48 66 66 65 66 65 64 66 67 68 68 67 66 66 65 65 65 64 64 63 63 62 62 61 62 61 61 62 63
23 26 26 35 56 65 64 63 64 65 66 68 68 68 68 67 65 65 65 65 64 63 63 62 61 61 60 61 61 61 62 61
36 29 31 34 41 63 63 63 64 65 65 65 68 68 68 67 66 65 66 65 64 63 63 63 62 61 60 60 61 61 61 61
44 44 34 36 40 55 64 64 62 64 65 66 66 68 68 66 66 65 66 65 63 64 63 63 62 61 60 58 60 60 61 60
41 43 45 39 31 50 60 62 61 63 63 65 66 66 67 65 65 66 66 65 64 64 64 63 62 62 60 59 59 59 59 60
39 40 41 43 45 43 52 60 61 61 62 62 65 66 66 65 64 65 65 64 65 64 63 63 63 62 59 59 56 58 60 60
37 39 39 41 44 46 45 49 60 60 61 60 65 66 66 66 64 63 64 63 64 63 62 62 61 62 62 58 55 53 56 59
37 37 38 40 43 45 49 51 53 59 60 59 64 66 66 66 64 64 63 63 62 63 62 62 61 61 62 61 59 60 53 55
36 37 38 41 43 47 48 49 52 56 59 58 61 66 65 65 64 65 63 63 63 62 62 62 62 61 61 60 60 60 60 57
34 36 38 41 44 46 49 51 53 53 58 57 59 64 65 64 64 65 64 63 62 62 62 63 61 62 61 60 58 57 58 57
33 35 37 40 42 47 51 53 56 58 58 57 58 62 64 64 64 64 64 63 63 63 63 62 62 61 61 61 60 60 59 57
32 33 36 39 42 46 48 50 53 55 54 57 61 63 63 64 63 63 64 64 63 63 62 63 62 62 61 61 61 61 61 59

GFSFLT2_sfc_30mbdewp_132.txt.gz
Dewpoint
68 68 68 68 68 68 70 70 71 71 71 70 71 70 70 70 70 69 69 69 69 69 68 68 68 68 67 67 67 67 65 61
67 69 68 68 68 68 68 69 70 70 71 71 70 70 70 70 70 69 69 69 69 68 68 67 67 67 67 67 67 66 65 63
53 69 69 68 68 68 67 68 69 70 70 70 70 70 70 70 69 69 69 69 69 68 67 67 67 67 67 66 66 66 65 65
32 40 58 67 68 68 67 67 68 69 70 70 70 70 70 70 69 69 69 69 68 67 67 67 67 66 66 66 65 65 65 65
42 43 44 51 63 68 67 67 67 68 69 69 69 69 69 69 69 68 69 69 68 67 67 67 66 66 65 65 65 65 65 64
38 43 44 44 44 60 67 67 67 67 68 69 69 68 68 68 68 68 68 68 67 67 66 66 66 65 65 65 64 64 65 64
36 39 41 43 45 46 58 66 67 66 67 69 69 68 68 67 67 67 68 67 66 66 65 65 65 65 65 64 64 64 65 63
35 36 38 41 42 44 45 58 66 66 67 67 69 68 68 67 67 67 67 67 66 66 65 65 64 64 64 64 64 63 64 63
33 34 36 38 40 42 43 48 59 66 66 66 67 68 67 67 66 67 67 66 66 65 65 64 63 64 63 63 63 63 64 64
31 32 34 36 38 40 43 46 49 60 64 65 66 67 67 66 66 66 66 66 65 65 64 63 62 63 62 62 62 62 63 64
29 30 31 34 36 38 40 43 47 58 63 64 64 67 67 66 66 66 66 66 65 64 63 63 62 62 62 62 62 61 62 64
28 29 31 32 35 37 38 41 45 47 51 63 63 64 66 66 66 65 65 65 64 64 63 63 62 62 61 61 61 62 62 63
27 29 29 30 31 33 36 37 40 43 50 53 59 62 62 65 66 65 65 64 64 63 63 62 61 61 60 59 60 61 61 62
28 29 29 30 31 32 35 37 39 43 44 50 56 55 62 63 64 65 65 64 64 63 62 61 61 61 59 59 57 58 59 61
28 29 30 30 31 33 35 37 40 42 45 49 53 57 59 62 65 65 65 65 64 63 62 61 60 61 60 57 54 54 56 58
29 29 30 31 32 32 33 34 36 40 45 48 49 51 55 59 63 64 65 65 64 63 62 61 60 59 60 59 56 55 54 54
29 30 30 31 33 34 34 36 38 39 42 45 46 49 52 54 55 63 64 65 64 63 62 61 61 60 60 59 57 58 57 55
29 31 31 32 35 36 37 37 38 38 40 43 45 48 51 54 52 53 64 64 64 63 63 62 62 61 61 60 59 56 57 57
30 31 31 31 34 35 37 39 41 43 44 45 47 48 50 53 54 54 55 63 64 64 63 62 62 61 61 61 60 59 58 57
31 31 31 32 33 34 37 39 41 43 45 47 47 51 52 52 50 50 57 58 63 62 62 61 61 60 59 61 60 60 60 58

GFSFLT2_sfc_30mbdewp_135.txt.gz
Dewpoint
64 68 68 68 68 68 69 70 70 70 70 70 70 70 70 70 69 70 70 70 69 69 68 68 67 67 67 67 67 66 64 63
42 46 57 67 68 68 68 69 70 70 70 70 70 70 70 70 69 69 69 69 69 68 67 67 67 67 67 67 67 66 65 62
42 44 46 47 58 67 68 67 68 69 70 70 70 70 70 69 69 69 69 69 68 68 67 67 67 67 67 66 66 66 65 63
38 40 44 46 46 49 63 67 67 68 69 69 68 68 69 69 69 69 69 69 68 67 67 67 67 66 66 66 65 65 65 64
36 37 40 42 43 49 50 62 67 67 68 68 68 68 68 69 69 68 68 68 68 67 66 67 66 66 65 65 65 64 64 64
34 35 37 37 40 43 47 49 57 66 67 68 67 67 67 67 68 68 68 68 67 67 66 65 65 65 65 64 64 64 64 64
32 33 35 35 36 38 41 44 48 53 65 67 66 67 66 66 67 67 67 67 67 66 65 64 65 65 64 64 64 63 64 64
31 31 32 33 34 36 38 40 45 48 54 65 66 64 67 66 66 66 66 66 66 66 64 64 64 64 64 64 64 63 64 63
29 29 30 31 33 35 36 38 42 45 49 56 65 65 64 66 66 66 66 66 66 65 65 64 64 64 64 64 64 63 64 63
27 28 29 31 31 32 34 37 39 41 46 52 59 64 64 63 65 66 66 65 65 65 64 63 63 63 62 63 63 64 64 63
27 28 29 30 30 31 32 34 37 41 45 47 49 59 64 63 65 65 66 66 65 65 64 63 62 62 62 62 63 62 63 64
28 28 29 30 30 31 31 32 36 39 40 43 47 52 54 64 64 65 66 66 65 65 63 63 62 61 61 62 62 62 63 63
28 28 29 30 30 30 31 31 33 35 38 41 45 45 52 59 64 64 65 64 64 64 63 62 62 62 61 61 61 61 61 63
28 29 29 30 30 31 32 32 33 36 38 40 43 47 53 59 62 63 64 64 64 64 63 62 62 62 59 58 56 58 60 61
28 29 29 30 31 32 33 33 33 34 37 40 44 49 50 51 56 62 62 64 64 63 63 62 61 61 60 57 54 53 56 58
28 29 29 30 32 31 32 32 31 33 35 38 41 46 48 49 52 57 62 64 63 63 63 62 61 59 60 59 56 55 54 54
29 29 29 30 30 32 33 34 35 35 35 37 38 41 44 48 51 54 53 56 62 63 63 62 61 60 59 59 57 56 54 53
28 29 30 30 31 33 34 34 35 37 37 37 38 41 44 49 52 53 53 52 57 59 63 62 61 61 60 59 58 56 55 54
30 30 28 30 32 33 34 34 36 37 39 41 42 41 45 48 52 53 53 53 54 57 62 62 61 61 60 60 60 58 57 57
30 31 28 30 31 32 34 35 35 37 39 42 44 45 46 48 52 51 54 56 56 56 57 62 62 61 61 60 60 59 58 57

GFSFLT2_sfc_30mbdewp_138.txt.gz
Dewpoint
42 43 46 47 53 62 67 68 70 70 70 70 70 70 70 69 69 69 69 69 69 69 69 68 67 68 68 67 66 65 63 62
37 39 44 44 46 49 56 66 68 69 69 69 69 70 70 70 69 69 69 69 69 69 68 67 67 67 67 67 66 65 64 63
35 36 40 41 41 46 48 50 65 68 68 68 67 69 69 69 69 69 69 69 69 68 68 67 67 67 67 67 66 66 64 62
34 35 38 38 37 42 46 47 52 63 67 67 68 67 69 69 69 69 69 68 68 68 67 67 66 66 66 66 66 65 64 63
33 33 35 35 36 39 41 45 47 50 60 66 67 67 66 67 68 68 68 68 68 67 67 66 66 66 65 65 65 65 65 64
31 31 33 32 34 36 40 41 43 45 48 51 65 67 66 66 67 68 68 68 68 67 66 66 65 65 65 65 65 64 64 64
29 29 30 30 31 34 34 36 40 43 46 47 54 64 66 66 66 66 67 67 67 66 66 65 64 64 64 64 64 64 64 64
28 28 29 30 31 31 32 34 37 40 43 45 49 55 64 65 65 65 66 66 66 66 65 64 63 64 64 64 63 63 63 64
27 28 29 30 30 30 31 32 34 37 39 41 45 51 51 63 64 65 66 66 66 65 65 64 63 64 64 64 64 63 63 63
28 28 29 30 30 31 31 32 33 34 37 41 44 46 48 51 63 64 66 66 65 65 64 63 62 63 63 63 64 63 63 64
28 28 29 30 31 31 32 32 32 34 36 39 39 43 45 51 53 63 65 65 65 64 63 63 62 62 62 62 63 63 63 63
28 29 30 30 31 31 32 32 33 33 34 36 38 40 43 47 47 52 64 64 64 64 63 63 62 62 62 61 62 63 63 63
28 29 29 30 30 30 30 31 32 33 34 35 37 39 41 42 44 51 60 58 61 63 63 62 61 62 60 60 60 61 61 63
28 28 29 29 29 30 31 31 32 32 33 35 36 39 42 46 49 52 54 59 55 63 63 61 61 61 59 58 56 58 60 61
28 28 29 29 30 30 31 31 32 32 32 33 35 37 40 44 47 49 50 55 58 60 63 62 59 61 60 57 54 53 57 59
28 28 29 29 29 30 31 31 30 33 35 35 35 36 37 40 44 46 49 54 59 59 62 62 61 59 60 59 56 55 54 55
28 28 29 29 29 29 32 32 33 34 36 37 37 38 37 40 43 44 48 53 53 59 61 62 62 59 60 59 56 55 54 53
28 28 29 29 30 29 32 32 33 34 35 36 37 39 40 40 42 45 51 53 53 54 59 55 57 61 60 59 58 55 54 52
29 29 28 28 29 30 30 31 32 32 34 36 37 38 41 42 42 47 49 52 53 54 57 57 55 59 60 59 59 57 56 55
29 28 29 29 29 30 32 31 32 32 34 35 36 39 41 44 45 48 49 54 53 54 57 56 55 55 60 60 59 59 58 56

GFSFLT2_sfc_30mbdewp_141.txt.gz
Dewpoint
39 39 41 41 44 48 49 53 63 68 69 69 68 68 69 69 69 69 69 69 69 69 69 68 67 67 67 67 66 64 63 63
37 38 38 38 39 43 45 47 49 58 67 68 68 68 67 68 69 68 69 68 68 68 69 68 67 67 67 67 66 65 64 63
35 35 37 36 35 38 41 43 45 47 58 65 67 67 66 65 66 67 68 68 68 68 68 67 67 67 67 67 66 65 65 64
31 33 35 34 32 37 38 38 41 43 47 49 56 66 67 66 67 67 67 68 68 68 67 67 67 65 66 66 66 65 65 65
30 31 33 33 33 35 36 37 39 40 43 46 49 55 67 67 67 68 68 67 67 67 67 66 65 65 65 65 65 66 65 65
29 30 32 32 34 33 33 34 36 36 40 43 45 50 52 65 66 66 67 68 68 67 66 65 66 66 66 65 65 64 64 65
29 30 31 32 32 32 33 33 33 37 38 41 43 44 47 55 65 66 66 66 67 66 67 66 65 66 66 65 64 64 64 64
30 30 31 32 32 33 33 33 33 34 36 38 40 43 45 49 54 64 66 66 66 66 66 66 65 64 65 65 64 63 63 64
29 30 31 32 32 32 32 33 34 33 34 36 39 41 44 45 46 53 63 66 66 66 66 66 65 64 64 65 64 64 63 63
29 30 31 32 32 32 32 33 33 33 34 35 37 38 40 41 43 46 57 63 65 65 65 64 64 64 63 64 64 64 62 62
29 30 31 31 32 32 32 32 33 33 34 34 36 38 39 40 41 45 50 53 61 64 64 64 62 63 63 63 64 62 62 61
29 30 31 31 31 31 31 31 32 32 33 33 35 36 38 40 41 43 44 48 50 63 62 63 62 62 62 62 63 63 62 61
29 29 30 30 30 30 30 30 31 31 32 33 34 35 37 39 41 43 44 44 49 57 61 61 62 63 61 61 62 63 63 63
29 29 30 30 30 30 30 30 31 31 32 33 34 35 36 37 39 42 46 49 51 55 60 60 60 62 60 58 57 58 60 62
29 29 29 30 30 29 29 30 31 31 32 33 34 37 38 37 37 40 44 47 49 51 57 54 51 58 61 58 55 53 56 59
29 29 29 29 29 29 29 29 29 30 31 33 34 36 38 39 38 39 41 44 47 51 56 55 54 52 58 61 59 54 54 55
29 29 29 29 29 29 29 30 30 30 30 33 34 36 38 40 41 40 41 43 45 48 52 58 54 57 56 59 59 58 57 53
28 28 28 29 29 29 29 29 29 30 30 32 33 35 37 39 41 43 42 43 45 48 53 57 58 56 57 59 58 57 55 55
27 28 28 28 28 28 29 30 30 29 30 31 32 34 35 37 39 43 44 44 46 50 52 55 59 58 57 55 59 59 57 56
27 26 27 27 28 28 29 29 31 29 29 30 31 32 34 37 40 42 44 45 47 49 53 54 58 58 56 55 57 60 58 57

GFSFLT2_sfc_30mbdewp_147.txt.gz
Dewpoint
44 44 43 44 44 46 46 46 47 48 49 52 53 59 66 67 68 67 68 67 68 69 69 70 69 68 67 67 67 66 64 60
43 43 43 43 40 44 46 46 46 47 49 51 50 55 64 67 66 67 67 67 67 68 68 69 69 68 67 67 67 66 64 61
40 42 43 43 37 40 43 43 43 44 45 48 48 46 51 59 65 65 65 66 66 67 67 68 68 68 67 67 67 65 62 61
37 40 42 42 37 40 40 39 40 42 44 46 46 47 46 46 54 65 65 66 66 66 66 66 67 64 65 66 65 63 62 62
37 39 41 42 41 39 39 39 40 40 41 45 45 46 45 45 44 48 64 66 65 63 64 65 64 64 62 64 64 63 62 62
37 38 40 41 41 39 40 39 39 39 41 42 43 43 44 44 44 43 47 58 66 64 64 63 64 64 64 62 63 62 62 61
37 38 39 40 40 40 40 40 38 40 39 40 41 43 43 44 45 45 46 47 53 63 66 63 63 64 64 63 62 60 61 62
37 37 38 40 40 40 40 38 38 39 39 39 42 43 43 43 43 43 44 44 44 51 56 65 63 63 64 64 63 62 60 61
35 35 37 39 39 39 38 37 38 38 38 39 40 41 42 43 43 42 42 43 46 46 55 58 65 65 63 64 65 64 61 62
35 36 37 38 38 38 37 37 37 36 37 37 38 39 41 41 41 41 42 44 43 44 45 54 57 61 65 64 63 64 62 61
35 36 37 37 37 36 35 35 35 35 35 35 36 38 39 40 40 41 42 43 43 43 43 48 57 58 61 64 63 63 63 61
34 35 36 36 34 34 33 33 33 33 33 34 36 37 38 39 39 40 40 40 41 43 44 46 50 57 57 58 63 64 63 62
33 33 34 34 32 33 32 32 32 32 32 33 33 34 35 36 37 38 40 39 40 42 44 45 45 50 58 60 62 64 63 63
31 32 33 33 33 33 32 32 32 31 31 31 32 33 34 35 37 37 38 39 39 40 43 45 47 46 53 57 56 59 62 63
30 31 32 33 34 33 32 32 31 30 30 30 30 31 34 35 37 38 39 40 40 40 40 41 45 49 51 55 53 51 56 61
29 30 31 32 34 33 33 30 29 29 29 29 30 31 33 34 36 37 39 40 40 41 41 41 42 46 49 56 57 56 53 51
29 29 29 32 33 33 32 30 29 28 29 29 29 30 31 32 34 35 37 38 39 41 42 41 43 44 48 51 54 58 58 56
28 27 27 30 32 32 31 30 29 29 29 28 28 30 30 31 33 34 35 37 38 40 41 43 42 44 46 51 53 55 55 55
26 25 25 28 31 32 31 30 29 28 28 28 28 29 29 31 32 33 35 36 39 40 42 43 44 44 46 48 53 55 54 55
27 24 22 25 28 30 30 29 29 29 28 29 29 29 30 32 32 33 34 36 38 41 45 44 45 47 47 49 52 55 56 53